Location: Nag� el Ma?a??a
(24.0667°N, 32.8833°E)
Time: 17:02:32
(UTC+00:00)

CZ-2C R/B - Pass Details

Date: 25 September 2021
Orbit: 668 x 783 km, 98.2° (Epoch: 16 October)

Event Time Altitude Azimuth Distance (km) Brightness Sun altitude
Rises 01:19:11 0° 11° (N) 3,259 6.1 -32.2°
Reaches altitude 10° 01:21:31 10° 11° (N) 2,322 5.2 -31.7°
Enters shadow 01:23:58 29° 10° (N) 1,389 4.0 -31.2°
